AirNav   ATP
 
 800 users online  

16W Little Goose Lock and Dam Airport
Starbuck, Washington, USA


FAA INFORMATION EFFECTIVE 04 JANUARY 2018

Location

FAA Identifier: 16W
Lat/Long: 46-35-02.2000N / 118-00-12.9000W
46-35.036667N / 118-00.215000W
46.5839444 / -118.0035833
(estimated)
Elevation: 681 ft. / 207.6 m (surveyed)
Variation: 19E (1985)
From city: 7 miles NE of STARBUCK, WA
Time zone: UTC -8 (UTC -7 during Daylight Saving Time)
Zip code: 99136

Airport Operations

Airport use: Open to the public
Activation date: 02/1966
Control tower: no
ARTCC: SEATTLE CENTER
FSS: SEATTLE FLIGHT SERVICE STATION
NOTAMs facility: SEA (NOTAM-D service available)
Attendance: UNATNDD
Wind indicator: yes
Segmented circle: no

Airport Communications

CTAF: 122.9

Nearby radio navigation aids

VOR radial/distance  VOR name  Freq  Var
ALWr002/32.1WALLA WALLA VOR/DME116.4020E
PUWr240/32.6PULLMAN VOR/DME109.0020E

Airport Services

Parking: tiedowns
Airframe service: NONE
Powerplant service: NONE
Bottled oxygen: NONE
Bulk oxygen: NONE

Runway Information

Runway 7/25

Dimensions: 3400 x 50 ft. / 1036 x 15 m
Surface: gravel, in poor condition
PORTIONS OF RY SFC ROUGH AND SOFT.
GRVL DOESN'T COMPACT WELL.
RUNWAY 7  RUNWAY 25
Latitude: 46-35.038952N46-35.032942N
Longitude: 118-00.620458W117-59.809028W
Traffic pattern: leftleft
Runway heading: 072 magnetic, 091 true252 magnetic, 271 true
Obstructions: 12 ft. road, 25 ft. from runway, 2:1 slope to clear262 ft. hill, 4200 ft. from runway, 420 ft. left of centerline, 16:1 slope to clear

Airport Ownership and Management from official FAA records

Ownership: Publicly-owned
Owner: WSDOT AVIATION DIVISION
7702 TERMINAL STREET SW
TUMWATER, WA 98501-7264
Phone 800-552-0666
800 NUMBER FOR WA STATE CALLS ONLY.
Manager: G. PAUL WOLF
7702 TERMINAL STREET SW
TUMWATER, WA 98501-7264
Phone (360) 618-2477

Airport Operational Statistics

Aircraft operations: avg 25/month *
100% transient general aviation
* for 12-month period ending 31 December 2015

Additional Remarks

ARPT LCTD IN CANYON; ROLLING TERRAIN 700-800' SOUTH RISING TO 750'; CANYON WALL 800' SOUTH RISES STEEPLY TO 1800+'; NORTH WALL RISES TO 1600+'.
RY MARKED WITH REFLECTORS DURING DATES ARPT IS OPEN.
FOR ACFT ACCIDENTS/INCIDENTS CTC WA STATE EMERGENCY OPERATIONS CENTER 800-258-5990.
CTC WA STATE AVIATION DIVISION 360-709-8015 OR 1-800-552-0666 WA AREA FOR FACILITY INFO PRIOR TO USE.
PEDESTRIANS, VEHICLES, AND ANIMALS ON & INVOF RY.
DENSITY ALTITUDE.
HIGH TERRAIN SURROUNDS ARPT.
STRONG WNDS POSSIBLE INSIDE CANYON.
DO NOT LAND IF SNOW PRESENT ON RY. NO WINTER SNOW REMOVAL OPS.

Instrument Procedures

There are no published instrument procedures at 16W.

Some nearby airports with instrument procedures:

KALW - Walla Walla Regional Airport (32 nm S)
KPUW - Pullman/Moscow Regional Airport (38 nm E)
KLWS - Lewiston-Nez Perce County Airport (43 nm E)
KPSC - Tri-Cities Airport (50 nm W)
KRLD - Richland Airport (56 nm W)
 
Loc | Ops | Rwys | IFR | FBO | Links
Com | Nav | Svcs | Stats | Notes


 
Area around 16W (Little Goose Lock and Dam Airport)
 
Road maps at: MapQuest Bing Google
 
Aerial photo
WARNING: Photo may not be current or correct
Aerial photo of 16W (Little Goose Lock and Dam Airport)
Photo by David Wyatt
Photo taken 15-Jul-2007

Do you have a better or more recent aerial photo of Little Goose Lock and Dam Airport that you would like to share? If so, please send us your photo.

 
Sectional chart

 
Airport distance calculator
Flying to Little Goose Lock and Dam Airport? Find the distance to fly.

From to 16W

Sunrise and sunset
Times for 20-Jan-2018
 Local
(UTC-8)
 Zulu
(UTC)
Morning civil twilight06:5614:56
Sunrise07:2915:29
Sunset16:3700:37
Evening civil twilight17:1001:10

Current date and time
Zulu (UTC)  20-Jan-2018 14:06:25
Local (UTC-8)  20-Jan-2018 06:06:25
 
METAR
KALW 
31nm S 
201353Z 19011KT 10SM SCT060 OVC075 06/M01 A3002 RMK AO2 RAB02E11 SLP173 P0000 T00561006
KPUW 
38nm E 
201353Z AUTO 12007KT 10SM OVC041 01/M02 A3000 RMK AO2 SLP179 T00111017
KLWS 
43nm E 
201356Z AUTO 00000KT 10SM OVC055 01/M01 A3003 RMK AO2 SLP181 T00061011
KPSC 
50nm W 
201353Z AUTO 23010KT 10SM FEW120 06/00 A3001 RMK AO2 SLP166 T00560000
TAF
KALW 
31nm S 
201139Z 2012/2112 18009KT P6SM FEW060 OVC070 FM202200 21008KT P6SM BKN150 FM210300 27006KT P6SM OVC250
KPUW 
38nm E 
201138Z 2012/2112 14007KT P6SM BKN050 OVC100 TEMPO 2015/2018 4SM -SHSN BR BKN025 OVC040 FM201800 20008KT P6SM VCSH SCT025 OVC040 FM202100 21011KT P6SM BKN060 BKN100 FM210300 13006KT P6SM BKN025 OVC100
NOTAMs
Click for the latest NOTAMs
NOTAMs are issued by the DoD/FAA and will open in a separate window not controlled by AirNav.

 

 
 

Would you like to see your business listed on this page?

 If your business provides an interesting product or service to pilots, flight crews, aircraft, or users of the Little Goose Lock and Dam Airport, you should consider listing it here.  To start the listing process, click on the button below
 
Add a business
 

Other Pages about Little Goose Lock and Dam Airport

www.wsdot.wa.gov/...
 
Update a link
 
Copyright © AirNav, LLC. All rights reserved. Privacy Policy  Contact